Location: ????? ???????
(25.7275°N, 32.5929°E)
Time: 11:05:20
(UTC+00:00)

Meteor 1-5 Rocket - Pass Details

Date: 02 March 2021
Orbit: 790 x 914 km, 81.2° (Epoch: 15 April)

Event Time Altitude Azimuth Distance (km) Brightness Sun altitude
Rises 16:54:08 0° 178° (S) 3,269 7.3 -14.8°
Reaches altitude 10° 16:56:30 10° 175° (S) 2,345 6.5 -15.3°
Maximum altitude 17:01:42 63° 95° (E) 887 4.0 -16.5°
Drops below altitude 10° 17:07:00 10° 15° (NNE) 2,394 6.4 -17.7°
Sets 17:09:26 0° 12° (NNE) 3,344 7.2 -18.2°
